GW6261 Weather Reports


time (UTC)temp
C
wind
direction
speed
KPH
gust
KPH
rain 1hr
cm
rain 24hr
cm
rain mn
cm
humidity
%
barometer
mb
20260510070111 23 138 3.2 9.7 0.00 0.00 0.00 91 1008.0
20260510065556 23 132 3.2 6.4 0.00 0.00 0.00 91 1008.0
20260510065056 23 115 11.3 11.3 0.00 0.00 0.00 91 1008.0
20260510064559 24 142 11.3 14.5 0.00 0.00 0.00 90 1008.0
20260510064056 24 141 3.2 16.1 0.00 0.00 0.00 90 1008.0
20260510063557 24 155 11.3 12.9 0.00 0.00 0.00 90 1008.0
20260510063056 24 98 1.6 12.9 0.00 0.00 0.00 90 1008.0
20260510062556 24 118 9.7 16.1 0.00 0.00 0.00 90 1008.0
20260510062056 24 140 6.4 12.9 0.00 0.00 0.00 90 1008.0
20260510061556 24 151 6.4 12.9 0.00 0.00 0.00 90 1008.0
20260510061056 24 125 8.0 14.5 0.00 0.00 0.00 90 1008.0
20260510060556 24 71 9.7 11.3 0.00 0.00 0.00 90 1008.0
20260510060100 24 132 4.8 14.5 0.00 0.00 0.00 90 1008.0
20260510055557 24 126 9.7 12.9 0.00 0.00 0.00 91 1008.0
20260510055056 24 129 4.8 9.7 0.00 0.00 0.00 90 1008.0
20260510054556 24 155 11.3 12.9 0.00 0.00 0.00 91 1008.0
20260510054056 25 135 9.7 19.3 0.00 0.00 0.00 91 1008.0
20260510053557 25 106 4.8 17.7 0.00 0.00 0.00 91 1009.0
20260510053056 25 154 8.0 11.3 0.00 0.00 0.00 91 1008.0
20260510052556 24 120 14.5 16.1 0.00 0.00 0.00 91 1009.0
20260510052057 24 97 8.0 11.3 0.00 0.00 0.00 91 1009.0
20260510051556 24 107 6.4 11.3 0.00 0.00 0.00 91 1009.0
20260510051056 24 176 8.0 16.1 0.00 0.00 0.00 91 1009.0
20260510050556 25 147 4.8 14.5 0.00 0.00 0.00 91 1009.0
20260510050056 25 89 8.0 11.3 0.00 0.00 0.00 91 1009.0
20260510045556 25 150 9.7 11.3 0.00 0.00 0.00 91 1009.0
20260510045056 25 54 6.4 14.5 0.00 0.00 0.00 92 1009.0
20260510044556 25 113 9.7 17.7 0.00 0.00 0.00 92 1009.0
20260510044056 25 107 8.0 12.9 0.00 0.00 0.00 92 1009.0
20260510043556 25 97 11.3 19.3 0.00 0.00 0.00 92 1009.0
20260510043056 25 115 3.2 17.7 0.00 0.00 0.00 92 1009.0
20260510042556 25 76 6.4 12.9 0.00 0.00 0.00 92 1009.0
20260510042057 25 88 4.8 11.3 0.00 0.00 0.00 92 1009.0
20260510041556 25 98 8.0 14.5 0.00 0.00 0.00 92 1009.0
20260510041057 25 92 11.3 14.5 0.00 0.00 0.00 92 1009.0
20260510040557 25 105 12.9 14.5 0.00 0.00 0.00 92 1009.0
20260510040056 25 112 4.8 12.9 0.00 0.00 0.00 92 1009.0
20260510035557 25 128 8.0 11.3 0.00 0.00 0.00 92 1009.0
20260510035056 25 63 8.0 11.3 0.00 0.00 0.00 91 1009.0
20260510034556 25 80 4.8 6.4 0.00 0.00 0.00 91 1009.0
20260510034056 25 109 11.3 11.3 0.00 0.00 0.00 90 1009.0
20260510033556 25 120 4.8 12.9 0.00 0.00 0.00 90 1009.0
20260510033056 25 109 9.7 16.1 0.00 0.00 0.00 90 1009.0
20260510032556 25 134 14.5 17.7 0.00 0.00 0.00 90 1009.0
20260510032056 25 98 6.4 14.5 0.00 0.00 0.00 89 1009.0
20260510031600 25 114 12.9 20.9 0.00 0.00 0.00 89 1009.0
20260510031056 25 99 17.7 17.7 0.00 0.00 0.00 89 1009.0
20260510030556 25 72 4.8 14.5 0.00 0.00 0.00 88 1009.0
20260510030057 25 82 4.8 20.9 0.00 0.00 0.00 87 1009.0
20260510025556 25 84 11.3 14.5 0.00 0.00 0.00 87 1009.0
20260510025056 26 97 8.0 14.5 0.00 0.00 0.00 86 1009.0
20260510024556 26 93 8.0 9.7 0.00 0.00 0.00 86 1009.0
20260510024056 26 131 4.8 8.0 0.00 0.00 0.00 85 1008.0
20260510023556 26 64 9.7 20.9 0.00 0.00 0.00 84 1008.0
20260510023057 26 111 6.4 14.5 0.00 0.00 0.00 82 1008.0
20260510022557 26 111 12.9 20.9 0.00 0.00 0.00 81 1008.0
20260510022056 26 119 11.3 11.3 0.00 0.00 0.00 76 1008.0
20260510021556 26 97 8.0 9.7 0.00 0.00 0.00 75 1008.0
20260510021056 26 102 8.0 17.7 0.00 0.00 0.00 74 1008.0
20260510020557 27 104 9.7 14.5 0.00 0.00 0.00 74 1008.0
20260510020056 27 145 4.8 22.5 0.00 0.00 0.00 74 1007.0
20260510015556 27 122 4.8 12.9 0.00 0.00 0.00 74 1007.0
20260510015056 27 154 11.3 17.7 0.00 0.00 0.00 74 1007.0
20260510014556 27 157 8.0 16.1 0.00 0.00 0.00 74 1007.0
20260510014057 27 137 8.0 14.5 0.00 0.00 0.00 73 1007.0
20260510013556 27 155 8.0 17.7 0.00 0.00 0.00 72 1007.0
20260510013059 27 113 12.9 20.9 0.00 0.00 0.00 71 1007.0
20260510012556 27 130 4.8 9.7 0.00 0.00 0.00 68 1006.0
20260510012056 27 152 9.7 12.9 0.00 0.00 0.00 67 1007.0
20260510011556 28 153 4.8 14.5 0.00 0.00 0.00 66 1007.0
20260510011057 28 134 9.7 17.7 0.00 0.00 0.00 65 1006.0
20260510010556 28 146 14.5 25.7 0.00 0.00 0.00 63 1006.0
20260510010056 28 135 8.0 25.7 0.00 0.00 0.00 62 1006.0
20260510005557 29 155 3.2 17.7 0.00 0.00 0.00 58 1006.0
20260510005056 29 174 1.6 8.0 0.00 0.00 0.00 55 1006.0
20260510004556 29 140 3.2 17.7 0.00 0.00 0.00 53 1006.0
20260510004056 30 164 1.6 11.3 0.00 0.00 0.00 52 1006.0
20260510003556 30 143 9.7 17.7 0.00 0.00 0.00 50 1006.0
20260510003056 30 137 17.7 17.7 0.00 0.00 0.00 49 1006.0
20260510002556 30 138 9.7 17.7 0.00 0.00 0.00 49 1006.0
20260510002056 30 134 8.0 14.5 0.00 0.00 0.00 54 1006.0
20260510001556 30 148 9.7 9.7 0.00 0.00 0.00 57 1006.0
20260510001056 30 143 8.0 14.5 0.00 0.00 0.00 57 1006.0
20260510000557 30 99 6.4 9.7 0.00 0.00 0.00 56 1006.0
20260510000056 30 150 9.7 19.3 0.00 0.00 0.00 55 1005.0
20260509235557 31 147 8.0 14.5 0.00 0.00 0.00 55 1005.0
20260509235056 30 154 14.5 16.1 0.00 0.00 0.00 58 1005.0
20260509234556 31 89 9.7 17.7 0.00 0.00 0.00 61 1005.0
20260509234059 31 129 3.2 9.7 0.00 0.00 0.00 58 1005.0
20260509233556 32 108 3.2 9.7 0.00 0.00 0.00 52 1005.0
20260509233056 32 151 9.7 12.9 0.00 0.00 0.00 52 1005.0
20260509232556 32 188 1.6 11.3 0.00 0.00 0.00 52 1005.0
20260509232056 32 139 8.0 8.0 0.00 0.00 0.00 51 1005.0
20260509231556 32 206 1.6 4.8 0.00 0.00 0.00 53 1005.0
20260509231056 32 210 1.6 4.8 0.00 0.00 0.00 52 1005.0
20260509230555 32 157 4.8 8.0 0.00 0.00 0.00 51 1005.0
20260509230056 33 132 9.7 16.1 0.00 0.00 0.00 51 1005.0
20260509225556 33 165 3.2 9.7 0.00 0.00 0.00 50 1005.0
20260509225057 33 254 1.6 4.8 0.00 0.00 0.00 50 1005.0
20260509224556 33 145 9.7 14.5 0.00 0.00 0.00 49 1005.0
20260509224056 33 204 0.0 8.0 0.00 0.00 0.00 50 1005.0
20260509223557 33 229 0.0 6.4 0.00 0.00 0.00 47 1005.0
20260509223056 33 236 3.2 14.5 0.00 0.00 0.00 49 1005.0
20260509222556 33 181 1.6 8.0 0.00 0.00 0.00 47 1005.0
20260509222056 33 101 3.2 6.4 0.00 0.00 0.00 46 1005.0
20260509221556 34 207 4.8 8.0 0.00 0.00 0.00 47 1005.0
20260509221056 33 239 1.6 4.8 0.00 0.00 0.00 48 1005.0
20260509220556 33 199 4.8 8.0 0.00 0.00 0.00 49 1005.0
20260509220057 33 149 4.8 8.0 0.00 0.00 0.00 48 1005.0
20260509215556 33 196 0.0 4.8 0.00 0.00 0.00 48 1005.0
20260509215056 34 202 3.2 4.8 0.00 0.00 0.00 47 1005.0
20260509214558 34 133 3.2 6.4 0.00 0.00 0.00 47 1005.0
20260509214056 34 230 4.8 16.1 0.00 0.00 0.00 46 1005.0
20260509213557 33 335 3.2 4.8 0.00 0.00 0.00 46 1005.0
20260509213056 33 73 3.2 6.4 0.00 0.00 0.00 46 1005.0
20260509212556 33 306 1.6 6.4 0.00 0.00 0.00 46 1005.0
20260509212056 33 280 4.8 9.7 0.00 0.00 0.00 47 1005.0
20260509211556 33 226 3.2 12.9 0.00 0.00 0.00 45 1005.0
20260509211056 33 168 1.6 4.8 0.00 0.00 0.00 46 1005.0
20260509210556 33 198 3.2 4.8 0.00 0.00 0.00 45 1005.0
20260509210057 33 189 4.8 9.7 0.00 0.00 0.00 48 1005.0
20260509205557 33 273 3.2 9.7 0.00 0.00 0.00 47 1005.0
20260509205056 33 247 6.4 14.5 0.00 0.00 0.00 46 1005.0
20260509204556 33 229 4.8 9.7 0.00 0.00 0.00 47 1005.0
20260509204056 33 242 3.2 11.3 0.00 0.00 0.00 49 1005.0
20260509203556 32 103 0.0 6.4 0.00 0.00 0.00 49 1005.0
20260509203056 33 178 3.2 12.9 0.00 0.00 0.00 48 1005.0
20260509202557 33 253 4.8 12.9 0.00 0.00 0.00 49 1005.0
20260509202056 32 220 0.0 3.2 0.00 0.00 0.00 50 1005.0
20260509201557 32 96 3.2 4.8 0.00 0.00 0.00 50 1005.0
20260509201058 32 182 1.6 6.4 0.00 0.00 0.00 50 1005.0
20260509200557 32 60 0.0 4.8 0.00 0.00 0.00 50 1006.0
20260509200056 32 337 1.6 4.8 0.00 0.00 0.00 51 1006.0
20260509195556 31 267 8.0 9.7 0.00 0.00 0.00 53 1006.0
20260509195056 32 259 8.0 14.5 0.00 0.00 0.00 54 1006.0
20260509194556 31 312 0.0 6.4 0.00 0.00 0.00 54 1006.0
20260509194056 31 261 6.4 6.4 0.00 0.00 0.00 55 1006.0
20260509193557 31 315 6.4 8.0 0.00 0.00 0.00 54 1006.0
20260509193057 32 244 11.3 12.9 0.00 0.00 0.00 54 1006.0
20260509192556 32 341 3.2 6.4 0.00 0.00 0.00 55 1006.0
20260509192056 32 287 4.8 6.4 0.00 0.00 0.00 57 1006.0
20260509191556 31 282 1.6 6.4 0.00 0.00 0.00 58 1006.0
20260509191056 31 268 6.4 9.7 0.00 0.00 0.00 56 1006.0
20260509190556 31 312 8.0 8.0 0.00 0.00 0.00 56 1006.0
20260509190056 31 263 3.2 4.8 0.00 0.00 0.00 57 1006.0
20260509185556 31 247 8.0 14.5 0.00 0.00 0.00 56 1006.0
20260509185056 31 247 9.7 12.9 0.00 0.00 0.00 57 1006.0
20260509184557 31 210 0.0 11.3 0.00 0.00 0.00 58 1006.0
20260509184056 31 258 3.2 8.0 0.00 0.00 0.00 61 1006.0
20260509183557 31 251 4.8 6.4 0.00 0.00 0.00 61 1006.0
20260509183056 30 239 3.2 4.8 0.00 0.00 0.00 63 1006.0
20260509182556 30 207 4.8 8.0 0.00 0.00 0.00 62 1006.0
20260509182056 30 258 9.7 11.3 0.00 0.00 0.00 64 1007.0
20260509181556 30 256 11.3 12.9 0.00 0.00 0.00 64 1007.0
20260509181057 30 289 1.6 4.8 0.00 0.00 0.00 66 1007.0
20260509180556 30 2 4.8 4.8 0.00 0.00 0.00 67 1007.0
20260509180056 29 259 4.8 6.4 0.00 0.00 0.00 68 1007.0
20260509175556 29 342 3.2 8.0 0.00 0.00 0.00 69 1007.0
20260509175057 29 247 8.0 9.7 0.00 0.00 0.00 70 1007.0
20260509174556 29 135 0.0 4.8 0.00 0.00 0.00 72 1007.0
20260509174056 29 250 3.2 8.0 0.00 0.00 0.00 72 1008.0
20260509173556 28 266 0.0 4.8 0.00 0.00 0.00 73 1008.0
20260509173057 28 228 1.6 9.7 0.00 0.00 0.00 75 1008.0
20260509172557 28 275 0.0 4.8 0.00 0.00 0.00 76 1008.0
20260509172056 28 271 4.8 8.0 0.00 0.00 0.00 75 1008.0
20260509171557 28 208 3.2 6.4 0.00 0.00 0.00 76 1008.0
20260509171058 28 319 1.6 6.4 0.00 0.00 0.00 76 1008.0
20260509170556 28 249 6.4 8.0 0.00 0.00 0.00 76 1008.0
20260509170056 28 229 3.2 4.8 0.00 0.00 0.00 77 1008.0
20260509165556 27 219 4.8 11.3 0.00 0.00 0.00 78 1008.0
20260509165056 28 230 4.8 11.3 0.00 0.00 0.00 77 1008.0
20260509164557 28 228 1.6 8.0 0.00 0.00 0.00 78 1008.0
20260509164056 28 236 1.6 3.2 0.00 0.00 0.00 78 1008.0
20260509163556 28 226 1.6 12.9 0.00 0.00 0.00 77 1008.0
20260509163057 28 220 0.0 4.8 0.00 0.00 0.00 77 1008.0
20260509162556 28 185 4.8 8.0 0.00 0.00 0.00 77 1008.0
20260509162056 28 142 3.2 3.2 0.00 0.00 0.00 78 1008.0
20260509161556 28 357 1.6 3.2 0.00 0.00 0.00 79 1008.0
20260509161057 28 300 3.2 8.0 0.00 0.00 0.00 78 1008.0
20260509160557 28 273 3.2 3.2 0.00 0.00 0.00 80 1008.0
20260509160057 27 119 3.2 3.2 0.00 0.00 0.00 81 1008.0
20260509155556 27 121 1.6 3.2 0.00 0.00 0.00 81 1008.0
20260509155057 27 66 0.0 1.6 0.00 0.00 0.00 82 1008.0
20260509154605 27 302 1.6 4.8 0.00 0.00 0.00 84 1008.0
20260509154057 26 304 1.6 4.8 0.00 0.00 0.00 84 1008.0
20260509153559 26 77 0.0 8.0 0.00 0.00 0.00 86 1007.0
20260509153056 26 106 4.8 4.8 0.00 0.00 0.00 87 1007.0
20260509152556 26 36 3.2 8.0 0.00 0.00 0.00 88 1007.0
20260509152056 25 131 4.8 6.4 0.00 0.00 0.00 89 1007.0
20260509151556 25 135 3.2 12.9 0.00 0.00 0.00 89 1007.0
20260509151056 25 140 9.7 11.3 0.00 0.00 0.00 89 1007.0
20260509150556 25 81 0.0 4.8 0.00 0.00 0.00 90 1008.0
20260509150056 25 116 4.8 8.0 0.00 0.00 0.00 89 1007.0
20260509145556 25 95 8.0 9.7 0.00 0.00 0.00 90 1007.0
20260509145056 25 110 4.8 8.0 0.00 0.00 0.00 90 1007.0
20260509144556 25 134 4.8 12.9 0.00 0.00 0.00 90 1007.0
20260509144056 25 139 6.4 14.5 0.00 0.00 0.00 90 1007.0
20260509143556 25 127 8.0 12.9 0.00 0.00 0.00 90 1008.0
20260509143057 25 135 3.2 8.0 0.00 0.00 0.00 90 1008.0
20260509142557 25 147 3.2 9.7 0.00 0.00 0.00 90 1007.0
20260509142057 25 123 3.2 4.8 0.00 0.00 0.00 91 1007.0
20260509141558 25 224 3.2 6.4 0.00 0.00 0.00 91 1008.0
20260509141056 25 234 1.6 4.8 0.00 0.00 0.00 92 1007.0
20260509140558 25 29 1.6 6.4 0.00 0.00 0.00 93 1007.0
20260509140057 25 104 3.2 6.4 0.00 0.00 0.00 94 1007.0
20260509135556 25 131 0.0 8.0 0.00 0.00 0.00 95 1007.0
20260509135056 25 248 4.8 11.3 0.00 0.00 0.00 96 1007.0
20260509134556 25 262 8.0 14.5 0.00 0.00 0.00 97 1008.0
20260509134056 24 260 8.0 9.7 0.00 0.00 0.00 97 1008.0
20260509133559 24 265 4.8 4.8 0.00 0.00 0.00 97 1007.0
20260509133057 24 234 3.2 3.2 0.00 0.00 0.00 98 1007.0
20260509132556 24 283 4.8 6.4 0.00 0.00 0.00 98 1007.0
20260509132057 24 239 0.0 4.8 0.00 0.00 0.00 98 1008.0
20260509131557 24 261 1.6 8.0 0.00 0.00 0.00 98 1008.0
20260509131056 24 167 1.6 4.8 0.00 0.00 0.00 98 1008.0
20260509130556 24 177 1.6 4.8 0.00 0.00 0.00 98 1008.0
20260509130056 23 148 3.2 4.8 0.00 0.00 0.00 98 1007.0
20260509125556 23 216 3.2 3.2 0.00 0.00 0.00 98 1007.0
20260509125058 23 124 0.0 3.2 0.00 0.00 0.00 98 1007.0
20260509124556 23 266 0.0 1.6 0.00 0.00 0.00 98 1008.0
20260509124056 23 214 0.0 3.2 0.00 0.00 0.00 98 1008.0
20260509123556 23 131 0.0 3.2 0.00 0.00 0.00 98 1008.0
20260509123056 23 106 3.2 3.2 0.00 0.00 0.00 98 1007.0
20260509122556 23 236 0.0 1.6 0.00 0.00 0.00 98 1007.0
20260509122056 23 230 0.0 1.6 0.00 0.00 0.00 98 1007.0
20260509121556 23 108 3.2 4.8 0.00 0.00 0.00 98 1007.0
20260509121056 23 143 0.0 4.8 0.00 0.00 0.00 98 1007.0
20260509120556 23 88 1.6 3.2 0.00 0.00 0.00 98 1007.0
20260509120056 23 81 0.0 3.2 0.00 0.00 0.00 98 1007.0
20260509115558 23 80 1.6 3.2 0.00 0.00 0.00 98 1007.0
20260509115056 23 354 1.6 3.2 0.00 0.00 0.00 98 1007.0
20260509114557 23 19 3.2 4.8 0.00 0.00 0.00 98 1007.0
20260509114056 23 88 0.0 3.2 0.00 0.00 0.00 98 1007.0
20260509113556 23 7 1.6 3.2 0.00 0.00 0.00 98 1007.0
20260509113056 23 41 0.0 3.2 0.00 0.00 0.00 98 1007.0
20260509112556 23 354 3.2 4.8 0.00 0.00 0.00 98 1007.0
20260509112056 23 106 3.2 4.8 0.00 0.00 0.00 98 1007.0
20260509111558 23 89 0.0 3.2 0.00 0.00 0.00 98 1007.0
20260509111056 23 81 0.0 3.2 0.00 0.00 0.00 98 1007.0
20260509110556 23 232 0.0 1.6 0.00 0.00 0.00 98 1007.0
20260509110056 23 70 0.0 4.8 0.00 0.00 0.00 98 1007.0
20260509105557 23 166 0.0 3.2 0.00 0.00 0.00 98 1007.0
20260509105056 23 326 0.0 1.6 0.00 0.00 0.00 98 1007.0
20260509104557 23 30 1.6 1.6 0.00 0.00 0.00 98 1007.0
20260509104056 23 117 0.0 3.2 0.00 0.00 0.00 98 1007.0
20260509103556 23 16 0.0 3.2 0.00 0.00 0.00 98 1007.0
20260509103056 23 118 0.0 3.2 0.00 0.00 0.00 98 1007.0
20260509102556 23 89 0.0 3.2 0.00 0.00 0.00 98 1007.0
20260509102056 23 224 0.0 3.2 0.00 0.00 0.00 98 1007.0
20260509101556 23 41 1.6 3.2 0.00 0.00 0.00 98 1007.0
20260509101056 23 15 1.6 3.2 0.00 0.00 0.00 98 1007.0
20260509100556 23 49 0.0 3.2 0.00 0.00 0.00 98 1007.0
20260509100056 23 245 1.6 3.2 0.00 0.00 0.00 98 1007.0
20260509095556 23 102 0.0 3.2 0.00 0.00 0.00 98 1007.0
20260509095057 23 41 0.0 3.2 0.00 0.00 0.00 98 1007.0
20260509094557 23 266 0.0 1.6 0.00 0.00 0.00 98 1007.0
20260509094056 23 4 1.6 3.2 0.00 0.00 0.00 98 1006.0
20260509093556 23 185 0.0 3.2 0.00 0.00 0.00 98 1007.0
20260509093056 23 3 0.0 3.2 0.00 0.00 0.00 98 1007.0
20260509092556 23 28 1.6 3.2 0.00 0.00 0.00 98 1006.0
20260509092056 23 297 0.0 3.2 0.00 0.00 0.00 98 1007.0
20260509091556 23 53 0.0 3.2 0.00 0.00 0.00 98 1006.0
20260509091056 23 103 1.6 4.8 0.00 0.00 0.00 98 1006.0
20260509090556 23 96 3.2 4.8 0.00 0.00 0.00 98 1006.0
20260509090056 23 134 1.6 4.8 0.00 0.00 0.00 98 1006.0
20260509085556 23 76 0.0 4.8 0.00 0.00 0.00 98 1006.0
20260509085056 23 75 1.6 4.8 0.00 0.00 0.00 98 1006.0
20260509084557 23 110 4.8 4.8 0.00 0.00 0.00 97 1006.0
20260509084057 23 134 3.2 3.2 0.00 0.00 0.00 97 1007.0
20260509083556 23 62 1.6 3.2 0.00 0.00 0.00 97 1006.0
20260509083056 23 81 1.6 4.8 0.00 0.00 0.00 97 1007.0
20260509082556 23 55 3.2 4.8 0.00 0.00 0.00 97 1006.0
20260509082056 23 132 0.0 4.8 0.00 0.00 0.00 97 1006.0
20260509081556 23 106 3.2 4.8 0.00 0.00 0.00 97 1007.0
20260509081058 23 93 4.8 4.8 0.00 0.00 0.00 97 1007.0
20260509080556 23 83 0.0 3.2 0.00 0.00 0.00 97 1007.0
20260509080056 23 99 1.6 3.2 0.00 0.00 0.00 97 1007.0
20260509075558 23 115 4.8 4.8 0.00 0.00 0.00 97 1007.0
20260509075057 23 17 0.0 4.8 0.00 0.00 0.00 97 1007.0
20260509074556 23 118 1.6 4.8 0.00 0.00 0.00 97 1007.0
20260509074056 23 69 1.6 3.2 0.00 0.00 0.00 97 1007.0
20260509073556 23 114 0.0 3.2 0.00 0.00 0.00 97 1007.0
20260509073056 23 93 1.6 4.8 0.00 0.00 0.00 97 1007.0
20260509072556 23 309 3.2 3.2 0.00 0.00 0.00 96 1007.0
20260509072057 23 126 0.0 3.2 0.00 0.00 0.00 96 1007.0
20260509071557 23 157 1.6 3.2 0.00 0.00 0.00 96 1007.0
20260509071056 23 28 0.0 3.2 0.00 0.00 0.00 96 1007.0
20260509070557 23 0 0.0 3.2 0.00 0.00 0.00 96 1007.0